Location: Le Moustier
(44.1000°N, 6.5167°E)
Time: 09:30:50
(UTC+00:00)

Cosmos 1933 - Pass Details

Date: 13 December 2025
Orbit: 510 x 517 km, 82.5° (Epoch: 21 January)

Event Time Altitude Azimuth Distance (km) Brightness Sun altitude
Rises 16:13:24 0° 164° (SSE) 2,632 7.0 -3.6°
Reaches altitude 10° 16:15:41 10° 154° (SSE) 1,748 5.9 -3.9°
Maximum altitude 16:19:05 31° 91° (E) 932 4.1 -4.5°
Drops below altitude 10° 16:22:30 10° 29° (NNE) 1,756 5.4 -5.0°
Enters shadow 16:25:25 -2° 17° (NNE) 2,893 6.6 -5.5°
